Time,TemperatureF,DewpointF,PressureIn,WindDirection,WindDirectionDegrees,WindSpeedMPH,WindSpeedGustMPH,Humidity,HourlyPrecipIn,Conditions,Clouds,dailyrainin,SoftwareType,DateUTC
2013-12-01 00:02:00,40.5,23.3,27.20,ESE,109,0.0,0.0,50,0.00,RA,SCT,0.00,WeatherDisplay:10.37,2013-12-01 08:02:00,
2013-12-01 00:07:00,40.5,23.3,27.20,North,5,2.3,2.7,50,0.00,CLR,SCT,0.00,WeatherDisplay:10.37,2013-12-01 08:07:00,
2013-12-01 00:12:00,40.5,23.3,27.20,North,5,2.3,2.7,50,0.00,CLR,SCT,0.00,WeatherDisplay:10.37,2013-12-01 08:12:00,
2013-12-01 00:17:00,39.7,23.1,27.20,North,5,2.3,2.7,51,0.00,CLR,SCT,0.00,WeatherDisplay:10.37,2013-12-01 08:17:00,
2013-12-01 00:22:00,39.7,23.1,27.20,North,5,2.3,2.7,51,0.00,CLR,SCT,0.00,WeatherDisplay:10.37,2013-12-01 08:22:00,
2013-12-01 00:27:00,39.7,23.5,27.20,ESE,109,3.5,0.0,52,0.00,CLR,SCT,0.00,WeatherDisplay:10.37,2013-12-01 08:27:00,
2013-12-01 00:32:00,39.7,23.5,27.20,ESE,109,2.3,2.7,52,0.00,CLR,SCT,0.00,WeatherDisplay:10.37,2013-12-01 08:32:00,
2013-12-01 00:37:00,39.7,23.5,27.20,ESE,109,2.3,2.7,52,0.00,CLR,SCT,0.00,WeatherDisplay:10.37,2013-12-01 08:37:00,
2013-12-01 00:43:00,39.7,23.5,27.20,North,0,2.3,2.7,52,0.00,CLR,SCT,0.00,WeatherDisplay:10.37,2013-12-01 08:43:00,
2013-12-01 00:48:00,39.7,23.5,27.20,ESE,109,3.5,4.0,52,0.00,CLR,SCT,0.00,WeatherDisplay:10.37,2013-12-01 08:48:00,
2013-12-01 00:53:00,39.4,23.7,27.20,ESE,109,3.5,4.0,53,0.00,CLR,SCT,0.00,WeatherDisplay:10.37,2013-12-01 08:53:00,
2013-12-01 00:58:00,39.4,23.7,27.20,ESE,109,0.0,0.0,53,0.00,CLR,SCT,0.00,WeatherDisplay:10.37,2013-12-01 08:58:00,
2013-12-01 01:01:00,39.4,23.7,27.20,ESE,109,0.0,0.0,53,0.00,CLR,SCT,0.00,WeatherDisplay:10.37,2013-12-01 09:01:00,
2013-12-01 01:06:00,39.2,23.5,27.20,ESE,109,0.0,0.0,53,0.00,CLR,SCT,0.00,WeatherDisplay:10.37,2013-12-01 09:06:00,
2013-12-01 01:11:00,39.2,23.5,27.20,ESE,109,0.0,0.0,53,0.00,CLR,SCT,0.00,WeatherDisplay:10.37,2013-12-01 09:11:00,
2013-12-01 01:16:00,39.2,23.5,27.20,ESE,109,0.0,0.0,53,0.00,CLR,SCT,0.00,WeatherDisplay:10.37,2013-12-01 09:16:00,
2013-12-01 01:21:00,38.8,23.6,27.20,ESE,109,0.0,0.0,54,0.00,CLR,SCT,0.00,WeatherDisplay:10.37,2013-12-01 09:21:00,
2013-12-01 01:26:00,38.8,23.6,27.20,ESE,109,3.5,3.5,54,0.00,CLR,SCT,0.00,WeatherDisplay:10.37,2013-12-01 09:26:00,
2013-12-01 01:31:00,38.5,23.3,27.20,ESE,109,3.5,3.5,54,0.00,CLR,SCT,0.00,WeatherDisplay:10.37,2013-12-01 09:31:00,
2013-12-01 01:36:00,38.5,23.3,27.17,ESE,109,3.5,3.5,54,0.00,CLR,SCT,0.00,WeatherDisplay:10.37,2013-12-01 09:36:00,
2013-12-01 01:41:00,38.5,23.3,27.17,ESE,109,0.0,0.0,54,0.00,CLR,SCT,0.00,WeatherDisplay:10.37,2013-12-01 09:41:00,
2013-12-01 01:46:00,38.5,23.3,27.17,ESE,109,0.0,0.0,54,0.00,CLR,SCT,0.00,WeatherDisplay:10.37,2013-12-01 09:46:00,
2013-12-01 01:51:00,38.5,23.3,27.17,ESE,109,0.0,0.0,54,0.00,CLR,SCT,0.00,WeatherDisplay:10.37,2013-12-01 09:51:00,
2013-12-01 01:56:00,38.5,23.3,27.17,ESE,109,3.5,3.6,54,0.00,CLR,SCT,0.00,WeatherDisplay:10.37,2013-12-01 09:56:00,
2013-12-01 02:01:00,38.5,23.3,27.17,ESE,109,3.5,3.6,54,0.00,CLR,SCT,0.00,WeatherDisplay:10.37,2013-12-01 10:01:00,
2013-12-01 02:06:00,38.5,23.3,27.17,ESE,109,0.0,0.0,54,0.00,CLR,SCT,0.00,WeatherDisplay:10.37,2013-12-01 10:06:00,
2013-12-01 02:11:00,38.5,23.3,27.17,ESE,109,3.5,0.0,54,0.00,CLR,SCT,0.00,WeatherDisplay:10.37,2013-12-01 10:11:00,
2013-12-01 02:16:00,38.5,23.3,27.14,ESE,109,3.5,0.0,54,0.00,CLR,SCT,0.00,WeatherDisplay:10.37,2013-12-01 10:16:00,
2013-12-01 02:21:00,38.5,23.3,27.14,North,1,3.5,0.0,54,0.00,CLR,SCT,0.00,WeatherDisplay:10.37,2013-12-01 10:21:00,
2013-12-01 02:26:00,38.5,23.3,27.14,North,1,3.5,0.0,54,0.00,CLR,SCT,0.00,WeatherDisplay:10.37,2013-12-01 10:26:00,
2013-12-01 02:31:00,38.5,23.3,27.14,WSW,249,9.2,9.2,54,0.00,CLR,SCT,0.00,WeatherDisplay:10.37,2013-12-01 10:31:00,
2013-12-01 02:36:00,38.5,23.3,27.14,NE,38,9.2,9.2,54,0.00,CLR,SCT,0.00,WeatherDisplay:10.37,2013-12-01 10:36:00,
2013-12-01 02:41:00,38.5,23.3,27.14,NE,38,9.2,9.2,54,0.00,CLR,SCT,0.00,WeatherDisplay:10.37,2013-12-01 10:41:00,
2013-12-01 02:46:00,38.7,24.3,27.14,West,265,35.7,35.7,56,0.00,CLR,SCT,0.00,WeatherDisplay:10.37,2013-12-01 10:46:00,
2013-12-01 02:51:00,38.7,24.3,27.14,West,265,35.7,35.7,56,0.00,CLR,SCT,0.00,WeatherDisplay:10.37,2013-12-01 10:51:00,
2013-12-01 02:56:00,38.7,24.3,27.14,West,265,35.7,35.7,56,0.00,CLR,SCT,0.00,WeatherDisplay:10.37,2013-12-01 10:56:00,
2013-12-01 03:01:00,38.7,24.3,27.14,NNE,12,35.7,35.7,56,0.00,CLR,SCT,0.00,WeatherDisplay:10.37,2013-12-01 11:01:00,
2013-12-01 03:06:00,38.7,24.3,27.14,ENE,71,3.5,5.4,56,0.00,,SCT,0.00,WeatherDisplay:10.37,2013-12-01 11:06:00,
2013-12-01 03:11:00,37.6,24.1,27.14,ENE,71,3.5,5.4,58,0.00,CLR,SCT,0.00,WeatherDisplay:10.37,2013-12-01 11:11:00,
2013-12-01 03:16:00,37.6,24.1,27.14,ENE,71,3.5,5.4,58,0.00,CLR,SCT,0.00,WeatherDisplay:10.37,2013-12-01 11:16:00,
2013-12-01 03:21:00,37.6,24.1,27.14,South,180,3.5,5.8,58,0.00,CLR,SCT,0.00,WeatherDisplay:10.37,2013-12-01 11:21:00,
2013-12-01 03:26:00,37.6,24.1,27.14,South,180,125.4,125.4,58,0.00,CLR,SCT,0.00,WeatherDisplay:10.37,2013-12-01 11:26:00,
2013-12-01 03:31:00,37.4,24.4,27.14,WSW,255,3.5,3.5,59,0.00,CLR,SCT,0.00,WeatherDisplay:10.37,2013-12-01 11:31:00,
2013-12-01 03:36:00,37.4,24.4,27.14,SE,129,5.8,5.8,59,0.00,CLR,SCT,0.00,WeatherDisplay:10.37,2013-12-01 11:36:00,
2013-12-01 03:41:00,38.1,26.6,27.14,ESE,118,5.8,5.8,63,0.00,CLR,SCT,0.00,WeatherDisplay:10.37,2013-12-01 11:41:00,
2013-12-01 03:46:00,38.8,25.3,27.14,ESE,118,5.8,5.8,58,0.00,CLR,SCT,0.00,WeatherDisplay:10.37,2013-12-01 11:46:00,
2013-12-01 03:51:00,39.4,27.0,27.14,SW,236,5.8,5.8,61,0.00,CLR,SCT,0.00,WeatherDisplay:10.37,2013-12-01 11:51:00,
2013-12-01 03:56:00,39.7,24.9,27.14,SW,236,2.3,2.7,55,0.00,CLR,SCT,0.00,WeatherDisplay:10.37,2013-12-01 11:56:00,
2013-12-01 04:01:00,39.7,24.9,27.14,SW,236,2.3,2.7,55,0.00,CLR,SCT,0.00,WeatherDisplay:10.37,2013-12-01 12:01:00,
2013-12-01 04:06:00,39.7,24.9,27.14,WNW,300,2.3,2.3,55,0.00,CLR,SCT,0.00,WeatherDisplay:10.37,2013-12-01 12:06:00,
2013-12-01 04:11:00,39.7,24.9,27.14,NNE,13,2.3,2.3,55,0.00,CLR,SCT,0.00,WeatherDisplay:10.37,2013-12-01 12:11:00,
2013-12-01 04:16:00,9.7,-62.6,27.14,ESE,121,6.3,6.3,2,0.00,CLR,SCT,0.00,WeatherDisplay:10.37,2013-12-01 12:16:00,
2013-12-01 04:21:00,41.5,26.6,27.14,ESE,121,5.8,5.8,55,0.00,CLR,SCT,0.00,WeatherDisplay:10.37,2013-12-01 12:21:00,
2013-12-01 04:26:00,41.5,26.6,27.14,North,0,5.8,5.8,55,0.00,CLR,SCT,0.00,WeatherDisplay:10.37,2013-12-01 12:26:00,
2013-12-01 04:31:00,41.9,26.9,27.14,West,260,3.5,4.0,55,0.00,CLR,SCT,0.00,WeatherDisplay:10.37,2013-12-01 12:31:00,
2013-12-01 04:36:00,41.9,26.9,27.14,SSW,212,92.0,92.0,55,0.00,CLR,SCT,0.00,WeatherDisplay:10.37,2013-12-01 12:36:00,
2013-12-01 04:41:00,42.8,28.2,27.14,SSW,212,92.0,92.0,56,0.00,CLR,SCT,0.00,WeatherDisplay:10.37,2013-12-01 12:41:00,
2013-12-01 04:46:00,42.8,28.2,27.14,SSW,211,92.0,92.0,56,0.00,CLR,SCT,0.00,WeatherDisplay:10.37,2013-12-01 12:46:00,
2013-12-01 04:51:00,42.8,28.2,27.14,SSW,211,5.8,5.8,56,0.00,CLR,SCT,0.00,WeatherDisplay:10.37,2013-12-01 12:51:00,
2013-12-01 04:56:00,44.1,28.0,27.14,SSW,211,5.8,5.8,53,0.00,CLR,SCT,0.00,WeatherDisplay:10.37,2013-12-01 12:56:00,
2013-12-01 05:01:00,44.1,28.0,27.14,SSW,211,5.8,5.8,53,0.00,CLR,SCT,0.00,WeatherDisplay:10.37,2013-12-01 13:01:00,
2013-12-01 05:06:00,44.4,27.4,27.14,SSW,211,5.8,5.8,51,0.00,CLR,SCT,0.00,WeatherDisplay:10.37,2013-12-01 13:06:00,
2013-12-01 05:11:00,44.4,27.9,27.14,SSW,211,5.8,5.8,52,0.00,CLR,SCT,0.00,WeatherDisplay:10.37,2013-12-01 13:11:00,
2013-12-01 05:16:00,44.4,27.9,27.08,SSW,211,5.8,5.8,52,0.00,CLR,SCT,0.00,WeatherDisplay:10.37,2013-12-01 13:16:00,
2013-12-01 05:21:00,44.4,27.9,27.08,SSW,211,5.8,5.8,52,0.00,CLR,SCT,0.00,WeatherDisplay:10.37,2013-12-01 13:21:00,
2013-12-01 05:26:00,44.4,27.9,27.08,South,182,3.5,4.9,52,0.00,CLR,SCT,0.00,WeatherDisplay:10.37,2013-12-01 13:26:00,
2013-12-01 05:31:00,44.4,27.9,27.08,South,182,3.5,4.9,52,0.00,CLR,SCT,0.00,WeatherDisplay:10.37,2013-12-01 13:31:00,
2013-12-01 05:36:00,45.3,28.2,27.08,South,182,3.5,4.9,51,0.00,CLR,SCT,0.00,WeatherDisplay:10.37,2013-12-01 13:36:00,
2013-12-01 05:41:00,45.3,28.2,27.08,SSW,210,3.5,3.5,51,0.00,CLR,SCT,0.00,WeatherDisplay:10.37,2013-12-01 13:41:00,
2013-12-01 05:46:00,45.3,28.2,27.08,SW,225,8.1,8.1,51,0.00,CLR,SCT,0.00,WeatherDisplay:10.37,2013-12-01 13:46:00,
2013-12-01 05:51:00,45.3,28.2,27.08,SW,218,9.2,9.2,51,0.00,CLR,SCT,0.00,WeatherDisplay:10.37,2013-12-01 13:51:00,
2013-12-01 05:56:00,48.7,30.9,27.20,SW,218,9.2,9.2,50,0.00,CLR,SCT,0.00,WeatherDisplay:10.37,2013-12-01 13:56:00,
2013-12-01 06:01:00,48.7,30.9,27.20,SW,218,9.2,9.2,50,0.00,CLR,SCT,0.00,WeatherDisplay:10.37,2013-12-01 14:01:00,
2013-12-01 06:06:00,48.4,30.1,27.20,SW,218,9.2,9.2,49,0.00,CLR,SCT,0.00,WeatherDisplay:10.37,2013-12-01 14:06:00,
2013-12-01 06:11:00,48.2,29.9,27.20,South,190,3.5,3.6,49,0.00,CLR,SCT,0.00,WeatherDisplay:10.37,2013-12-01 14:11:00,
2013-12-01 06:16:00,48.9,31.6,27.08,West,259,3.5,5.4,51,0.00,CLR,SCT,0.00,WeatherDisplay:10.37,2013-12-01 14:16:00,
2013-12-01 06:21:00,48.9,31.6,27.08,West,259,3.5,5.4,51,0.00,CLR,SCT,0.00,WeatherDisplay:10.37,2013-12-01 14:21:00,
2013-12-01 06:26:00,48.9,31.6,27.08,West,259,3.5,5.4,51,0.00,CLR,SCT,0.00,WeatherDisplay:10.37,2013-12-01 14:26:00,
2013-12-01 06:31:00,48.9,31.6,27.08,West,259,3.5,5.4,51,0.00,CLR,SCT,0.00,WeatherDisplay:10.37,2013-12-01 14:31:00,
2013-12-01 06:36:00,52.5,32.9,27.08,West,259,3.5,5.4,47,0.00,CLR,SCT,0.00,WeatherDisplay:10.37,2013-12-01 14:36:00,
2013-12-01 06:41:00,52.5,32.9,27.08,West,259,3.5,5.4,47,0.00,CLR,SCT,0.00,WeatherDisplay:10.37,2013-12-01 14:41:00,
2013-12-01 06:46:00,52.5,32.9,27.05,WSW,237,12.7,12.7,47,0.00,CLR,SCT,0.00,WeatherDisplay:10.37,2013-12-01 14:46:00,
2013-12-01 06:51:00,52.5,32.9,27.05,North,0,12.7,12.7,47,0.00,CLR,SCT,0.00,WeatherDisplay:10.37,2013-12-01 14:51:00,
2013-12-01 06:56:00,52.5,32.9,27.05,North,0,12.7,12.7,47,0.00,CLR,SCT,0.00,WeatherDisplay:10.37,2013-12-01 14:56:00,
2013-12-01 07:01:00,53.1,32.8,27.05,North,0,9.2,9.2,46,0.00,CLR,SCT,0.00,WeatherDisplay:10.37,2013-12-01 15:01:00,
2013-12-01 07:06:00,53.4,33.1,27.05,WSW,240,10.4,10.4,46,0.00,CLR,SCT,0.00,WeatherDisplay:10.37,2013-12-01 15:06:00,
2013-12-01 07:12:00,53.4,33.1,27.05,WSW,255,11.5,141.2,46,0.00,,SCT,0.00,WeatherDisplay:10.37,2013-12-01 15:12:00,
2013-12-01 07:17:00,53.4,33.1,27.05,WSW,255,11.5,141.2,46,0.00,,SCT,0.00,WeatherDisplay:10.37,2013-12-01 15:17:00,
2013-12-01 07:22:00,53.4,33.1,27.05,North,0,18.4,18.4,46,0.00,CLR,SCT,0.00,WeatherDisplay:10.37,2013-12-01 15:22:00,
2013-12-01 07:27:00,53.2,33.0,27.05,North,0,18.4,18.4,46,0.00,CLR,SCT,0.00,WeatherDisplay:10.37,2013-12-01 15:27:00,
2013-12-01 07:32:00,53.2,33.0,27.08,West,259,12.7,12.7,46,0.00,CLR,SCT,0.00,WeatherDisplay:10.37,2013-12-01 15:32:00,
2013-12-01 07:37:00,53.4,33.1,27.08,West,259,12.7,12.7,46,0.00,CLR,SCT,0.00,WeatherDisplay:10.37,2013-12-01 15:37:00,
2013-12-01 07:42:00,53.2,33.0,27.08,West,259,12.7,12.7,46,0.00,CLR,SCT,0.00,WeatherDisplay:10.37,2013-12-01 15:42:00,
2013-12-01 07:47:00,53.2,33.0,27.08,WSW,250,15.0,15.9,46,0.00,CLR,SCT,0.00,WeatherDisplay:10.37,2013-12-01 15:47:00,
2013-12-01 07:52:00,53.1,32.8,27.08,WSW,250,12.7,15.9,46,0.00,CLR,SCT,0.00,WeatherDisplay:10.37,2013-12-01 15:52:00,
2013-12-01 07:57:00,53.1,32.8,27.08,WSW,238,10.4,13.6,46,0.00,CLR,SCT,0.00,WeatherDisplay:10.37,2013-12-01 15:57:00,
2013-12-01 08:02:00,52.9,32.6,27.08,WSW,238,10.4,13.6,46,0.00,CLR,SCT,0.00,WeatherDisplay:10.37,2013-12-01 16:02:00,
2013-12-01 08:07:00,52.9,32.6,27.08,West,265,12.7,12.7,46,0.00,CLR,SCT,0.00,WeatherDisplay:10.37,2013-12-01 16:07:00,
2013-12-01 08:12:00,52.5,32.3,27.08,West,265,12.7,12.7,46,0.00,CLR,SCT,0.00,WeatherDisplay:10.37,2013-12-01 16:12:00,
2013-12-01 08:17:00,52.5,32.3,27.08,West,265,12.7,12.7,46,0.00,CLR,SCT,0.00,WeatherDisplay:10.37,2013-12-01 16:17:00,
2013-12-01 08:22:00,52.5,32.3,27.08,SW,229,12.7,12.7,46,0.00,CLR,SCT,0.00,WeatherDisplay:10.37,2013-12-01 16:22:00,
2013-12-01 08:27:00,52.5,32.3,27.08,SW,229,12.7,12.7,46,0.00,CLR,SCT,0.00,WeatherDisplay:10.37,2013-12-01 16:27:00,
2013-12-01 08:32:00,52.5,32.3,27.08,SW,229,12.7,12.7,46,0.00,CLR,SCT,0.00,WeatherDisplay:10.37,2013-12-01 16:32:00,
2013-12-01 08:37:00,52.5,32.3,27.08,SW,229,12.7,12.7,46,0.00,CLR,SCT,0.00,WeatherDisplay:10.37,2013-12-01 16:37:00,
2013-12-01 08:42:00,52.5,32.3,27.08,WSW,249,12.7,12.7,46,0.00,CLR,SCT,0.00,WeatherDisplay:10.37,2013-12-01 16:42:00,
2013-12-01 08:47:00,52.2,32.0,27.08,WSW,249,12.7,12.7,46,0.00,CLR,SCT,0.00,WeatherDisplay:10.37,2013-12-01 16:47:00,
2013-12-01 08:52:00,52.2,32.0,27.08,WSW,249,12.7,12.7,46,0.00,CLR,SCT,0.00,WeatherDisplay:10.37,2013-12-01 16:52:00,
2013-12-01 08:57:00,52.2,32.0,27.08,West,265,12.7,12.7,46,0.00,CLR,SCT,0.00,WeatherDisplay:10.37,2013-12-01 16:57:00,
2013-12-01 09:02:00,52.2,32.0,27.08,West,265,8.1,8.3,46,0.00,CLR,SCT,0.00,WeatherDisplay:10.37,2013-12-01 17:02:00,
2013-12-01 09:07:00,52.2,32.0,27.08,West,265,8.1,8.3,46,0.00,CLR,SCT,0.00,WeatherDisplay:10.37,2013-12-01 17:07:00,
2013-12-01 09:12:00,52.9,32.1,27.08,West,265,8.1,8.3,45,0.00,CLR,SCT,0.00,WeatherDisplay:10.37,2013-12-01 17:12:00,
2013-12-01 09:17:00,52.9,32.1,27.08,NNE,12,8.1,111.7,45,0.00,CLR,SCT,0.00,WeatherDisplay:10.37,2013-12-01 17:17:00,
2013-12-01 09:22:00,53.1,31.7,27.08,SSE,163,80.5,80.5,44,0.00,,SCT,0.00,WeatherDisplay:10.37,2013-12-01 17:22:00,
2013-12-01 09:27:00,53.1,31.7,27.08,WSW,242,5.8,5.8,44,0.00,CLR,SCT,0.00,WeatherDisplay:10.37,2013-12-01 17:27:00,
2013-12-01 09:32:00,53.1,31.7,27.08,SW,229,8.1,8.1,44,0.00,CLR,SCT,0.00,WeatherDisplay:10.37,2013-12-01 17:32:00,
2013-12-01 09:37:00,53.1,31.7,27.08,West,262,5.8,5.8,44,0.00,CLR,SCT,0.00,WeatherDisplay:10.37,2013-12-01 17:37:00,
2013-12-01 09:42:00,53.1,31.7,27.08,SW,233,8.1,10.1,44,0.00,CLR,SCT,0.00,WeatherDisplay:10.37,2013-12-01 17:42:00,
2013-12-01 09:47:00,53.1,31.7,27.08,SW,226,8.1,8.1,44,0.00,CLR,SCT,0.00,WeatherDisplay:10.37,2013-12-01 17:47:00,
2013-12-01 09:52:00,53.1,31.7,27.08,SW,214,9.2,9.2,44,0.00,CLR,SCT,0.00,WeatherDisplay:10.37,2013-12-01 17:52:00,
2013-12-01 09:57:00,53.1,31.7,27.08,WSW,258,8.1,8.3,44,0.00,CLR,SCT,0.00,WeatherDisplay:10.37,2013-12-01 17:57:00,
2013-12-01 10:02:00,53.1,31.7,27.08,SW,223,10.4,10.4,44,0.00,CLR,SCT,0.00,WeatherDisplay:10.37,2013-12-01 18:02:00,
2013-12-01 10:07:00,53.1,31.7,27.08,SW,223,10.4,10.4,44,0.00,CLR,SCT,0.00,WeatherDisplay:10.37,2013-12-01 18:07:00,
2013-12-01 10:12:00,53.1,31.7,27.08,SW,236,5.8,8.3,44,0.00,CLR,SCT,0.00,WeatherDisplay:10.37,2013-12-01 18:12:00,
2013-12-01 10:17:00,53.1,31.7,27.08,SW,220,15.0,16.8,44,0.00,CLR,SCT,0.00,WeatherDisplay:10.37,2013-12-01 18:17:00,
2013-12-01 10:22:00,53.1,31.7,27.20,SSW,207,12.7,12.7,44,0.00,CLR,SCT,0.00,WeatherDisplay:10.37,2013-12-01 18:22:00,
2013-12-01 10:27:00,59.4,33.7,27.20,SW,220,17.3,17.3,38,0.00,CLR,SCT,0.00,WeatherDisplay:10.37,2013-12-01 18:27:00,
2013-12-01 10:32:00,59.4,33.7,27.20,SW,220,17.3,17.3,38,0.00,CLR,SCT,0.00,WeatherDisplay:10.37,2013-12-01 18:32:00,
2013-12-01 10:37:00,59.7,33.4,27.20,North,0,17.3,17.3,37,0.00,CLR,SCT,0.00,WeatherDisplay:10.37,2013-12-01 18:37:00,
2013-12-01 10:42:00,59.9,33.5,27.20,WSW,245,9.2,10.5,37,0.00,CLR,SCT,0.00,WeatherDisplay:10.37,2013-12-01 18:42:00,
2013-12-01 10:47:00,59.9,33.5,27.20,WSW,242,13.8,14.5,37,0.00,CLR,SCT,0.00,WeatherDisplay:10.37,2013-12-01 18:47:00,
2013-12-01 10:52:00,59.9,33.5,27.20,West,268,21.9,21.9,37,0.00,CLR,SCT,0.00,WeatherDisplay:10.37,2013-12-01 18:52:00,
2013-12-01 10:57:00,59.9,33.5,27.20,SW,234,21.9,21.9,37,0.00,CLR,SCT,0.00,WeatherDisplay:10.37,2013-12-01 18:57:00,
2013-12-01 11:02:00,61.3,34.1,27.20,SSW,198,11.5,13.2,36,0.00,CLR,SCT,0.00,WeatherDisplay:10.37,2013-12-01 19:02:00,
2013-12-01 11:07:00,61.3,34.1,27.20,SW,232,12.7,12.7,36,0.00,CLR,SCT,0.00,WeatherDisplay:10.37,2013-12-01 19:07:00,
2013-12-01 11:12:00,61.3,34.1,27.20,SW,232,11.5,11.5,36,0.00,CLR,SCT,0.00,WeatherDisplay:10.37,2013-12-01 19:12:00,
2013-12-01 11:17:00,63.3,35.2,27.20,SW,232,11.5,11.5,35,0.00,CLR,SCT,0.00,WeatherDisplay:10.37,2013-12-01 19:17:00,
2013-12-01 11:22:00,62.8,34.7,27.20,WSW,243,13.8,17.0,35,0.00,CLR,SCT,0.00,WeatherDisplay:10.37,2013-12-01 19:22:00,
2013-12-01 11:27:00,63.3,35.2,27.20,SW,221,10.4,10.5,35,0.00,CLR,SCT,0.00,WeatherDisplay:10.37,2013-12-01 19:27:00,
2013-12-01 11:32:00,63.3,35.2,27.20,SSW,213,13.2,13.2,35,0.00,CLR,SCT,0.00,WeatherDisplay:10.37,2013-12-01 19:32:00,
2013-12-01 11:37:00,63.3,35.2,27.20,SW,218,8.1,10.5,35,0.00,CLR,SCT,0.00,WeatherDisplay:10.37,2013-12-01 19:37:00,
2013-12-01 11:38:00,64.6,35.6,27.20,WSW,244,16.1,16.1,34,0.00,CLR,SCT,0.00,WeatherDisplay:10.37,2013-12-01 19:38:00,
2013-12-01 11:43:00,65.1,36.0,27.08,SW,225,9.2,9.2,34,0.00,CLR,SCT,0.00,WeatherDisplay:10.37,2013-12-01 19:43:00,
2013-12-01 11:48:00,65.1,36.0,27.08,WSW,255,5.8,6.7,34,0.00,CLR,SCT,0.00,WeatherDisplay:10.37,2013-12-01 19:48:00,
2013-12-01 11:53:00,65.1,36.0,27.08,SW,230,12.7,19.7,34,0.00,CLR,SCT,0.00,WeatherDisplay:10.37,2013-12-01 19:53:00,
2013-12-01 11:58:00,65.1,36.0,27.08,SW,224,8.1,15.9,34,0.00,CLR,SCT,0.00,WeatherDisplay:10.37,2013-12-01 19:58:00,
2013-12-01 12:03:00,65.1,36.0,27.08,WSW,243,8.1,10.9,34,0.00,CLR,SCT,0.00,WeatherDisplay:10.37,2013-12-01 20:03:00,
2013-12-01 12:08:00,65.1,36.0,27.08,SSW,201,8.1,10.9,34,0.00,CLR,SCT,0.00,WeatherDisplay:10.37,2013-12-01 20:08:00,
2013-12-01 12:13:00,63.7,35.5,27.08,SSW,201,8.1,10.9,35,0.00,CLR,SCT,0.00,WeatherDisplay:10.37,2013-12-01 20:13:00,
2013-12-01 12:18:00,64.0,35.8,27.08,SSW,201,8.1,10.9,35,0.00,CLR,SCT,0.00,WeatherDisplay:10.37,2013-12-01 20:18:00,
2013-12-01 12:23:00,64.0,35.8,27.08,WSW,249,12.7,12.7,35,0.00,CLR,SCT,0.00,WeatherDisplay:10.37,2013-12-01 20:23:00,
2013-12-01 12:28:00,64.2,36.0,27.08,SSW,212,12.7,12.7,35,0.00,CLR,SCT,0.00,WeatherDisplay:10.37,2013-12-01 20:28:00,
2013-12-01 12:33:00,64.2,36.0,27.08,SW,232,17.3,17.3,35,0.00,CLR,SCT,0.00,WeatherDisplay:10.37,2013-12-01 20:33:00,
2013-12-01 12:38:00,64.2,36.0,27.08,North,4,17.3,17.3,35,0.00,CLR,SCT,0.00,WeatherDisplay:10.37,2013-12-01 20:38:00,
2013-12-01 12:43:00,64.2,36.0,27.08,North,4,17.3,17.3,35,0.00,CLR,SCT,0.00,WeatherDisplay:10.37,2013-12-01 20:43:00,
2013-12-01 12:48:00,64.2,36.0,27.05,North,4,17.3,17.3,35,0.00,CLR,SCT,0.00,WeatherDisplay:10.37,2013-12-01 20:48:00,
2013-12-01 12:53:00,64.2,36.0,27.05,SW,219,17.3,17.3,35,0.00,CLR,SCT,0.00,WeatherDisplay:10.37,2013-12-01 20:53:00,
2013-12-01 12:58:00,64.2,36.0,27.05,WSW,255,17.3,17.3,35,0.00,CLR,SCT,0.00,WeatherDisplay:10.37,2013-12-01 20:58:00,
2013-12-01 13:03:00,64.2,36.0,27.05,WSW,255,17.3,17.3,35,0.00,CLR,SCT,0.00,WeatherDisplay:10.37,2013-12-01 21:03:00,
2013-12-01 13:09:00,64.4,35.4,27.05,NNE,30,5.8,7.2,34,0.00,CLR,SCT,0.00,WeatherDisplay:10.37,2013-12-01 21:09:00,
2013-12-01 13:14:00,64.4,35.4,27.05,NNE,30,5.8,7.2,34,0.00,CLR,SCT,0.00,WeatherDisplay:10.37,2013-12-01 21:14:00,
2013-12-01 13:19:00,62.4,34.4,27.05,SW,224,17.3,17.3,35,0.00,CLR,SCT,0.00,WeatherDisplay:10.37,2013-12-01 21:19:00,
2013-12-01 13:24:00,62.4,34.4,27.05,SW,224,17.3,17.3,35,0.00,CLR,SCT,0.00,WeatherDisplay:10.37,2013-12-01 21:24:00,
2013-12-01 13:29:00,62.4,34.4,27.05,SW,224,17.3,17.3,35,0.00,CLR,SCT,0.00,WeatherDisplay:10.37,2013-12-01 21:29:00,
2013-12-01 13:34:00,62.4,34.4,27.05,SW,224,17.3,17.3,35,0.00,CLR,SCT,0.00,WeatherDisplay:10.37,2013-12-01 21:34:00,
2013-12-01 13:39:00,62.4,34.4,27.05,North,0,17.3,17.3,35,0.00,CLR,SCT,0.00,WeatherDisplay:10.37,2013-12-01 21:39:00,
2013-12-01 13:44:00,62.4,34.4,27.05,South,169,8.1,8.1,35,0.00,CLR,SCT,0.00,WeatherDisplay:10.37,2013-12-01 21:44:00,
2013-12-01 13:49:00,62.1,34.1,27.02,South,169,8.1,8.1,35,0.00,CLR,SCT,0.00,WeatherDisplay:10.37,2013-12-01 21:49:00,
2013-12-01 13:54:00,61.7,33.7,27.02,West,266,15.0,15.0,35,0.00,CLR,SCT,0.00,WeatherDisplay:10.37,2013-12-01 21:54:00,
2013-12-01 13:59:00,61.7,33.7,27.02,West,266,15.0,15.0,35,0.00,CLR,SCT,0.00,WeatherDisplay:10.37,2013-12-01 21:59:00,
2013-12-01 14:04:00,61.7,33.7,27.02,WSW,247,9.2,16.3,35,0.00,CLR,SCT,0.00,WeatherDisplay:10.37,2013-12-01 22:04:00,
2013-12-01 14:09:00,61.7,33.7,27.02,West,270,12.7,13.6,35,0.00,CLR,SCT,0.00,WeatherDisplay:10.37,2013-12-01 22:09:00,
2013-12-01 14:14:00,61.3,33.4,27.02,West,270,12.7,13.6,35,0.00,CLR,SCT,0.00,WeatherDisplay:10.37,2013-12-01 22:14:00,
2013-12-01 14:19:00,61.3,33.4,27.02,West,264,8.1,10.9,35,0.00,CLR,SCT,0.00,WeatherDisplay:10.37,2013-12-01 22:19:00,
2013-12-01 14:24:00,61.3,33.4,27.02,WSW,238,10.4,10.4,35,0.00,CLR,SCT,0.00,WeatherDisplay:10.37,2013-12-01 22:24:00,
2013-12-01 14:29:00,61.0,33.1,27.02,SSW,205,10.4,10.4,35,0.00,CLR,SCT,0.00,WeatherDisplay:10.37,2013-12-01 22:29:00,
2013-12-01 14:34:00,61.0,33.1,27.02,North,0,10.4,10.4,35,0.00,CLR,SCT,0.00,WeatherDisplay:10.37,2013-12-01 22:34:00,
2013-12-01 14:39:00,61.0,33.1,27.02,North,0,10.4,10.4,35,0.00,CLR,SCT,0.00,WeatherDisplay:10.37,2013-12-01 22:39:00,
2013-12-01 14:44:00,61.0,33.1,27.02,WSW,239,8.1,8.1,35,0.00,CLR,SCT,0.00,WeatherDisplay:10.37,2013-12-01 22:44:00,
2013-12-01 14:49:00,61.0,33.1,27.02,WSW,254,8.1,0.0,35,0.00,CLR,SCT,0.00,WeatherDisplay:10.37,2013-12-01 22:49:00,
2013-12-01 14:54:00,61.0,33.1,27.02,WSW,257,9.2,10.1,35,0.00,CLR,SCT,0.00,WeatherDisplay:10.37,2013-12-01 22:54:00,
2013-12-01 14:59:00,61.0,33.1,27.02,WSW,257,9.2,10.1,35,0.00,CLR,SCT,0.00,WeatherDisplay:10.37,2013-12-01 22:59:00,
2013-12-01 15:04:00,61.0,33.1,27.02,WSW,257,9.2,10.1,35,0.00,CLR,SCT,0.00,WeatherDisplay:10.37,2013-12-01 23:04:00,
2013-12-01 15:09:00,61.0,33.1,27.02,North,0,5.8,5.8,35,0.00,CLR,SCT,0.00,WeatherDisplay:10.37,2013-12-01 23:09:00,
2013-12-01 15:14:00,61.0,33.1,27.02,North,0,5.8,5.8,35,0.00,CLR,SCT,0.00,WeatherDisplay:10.37,2013-12-01 23:14:00,
2013-12-01 15:19:00,61.0,33.1,27.02,North,0,5.8,5.8,35,0.00,CLR,SCT,0.00,WeatherDisplay:10.37,2013-12-01 23:19:00,
2013-12-01 15:24:00,61.0,33.1,27.02,North,0,3.5,3.6,35,0.00,CLR,SCT,0.00,WeatherDisplay:10.37,2013-12-01 23:24:00,
2013-12-01 15:29:00,60.4,33.3,27.02,WSW,245,3.5,3.6,36,0.00,CLR,SCT,0.00,WeatherDisplay:10.37,2013-12-01 23:29:00,
2013-12-01 15:34:00,60.4,33.3,27.02,WSW,245,3.5,3.6,36,0.00,CLR,SCT,0.00,WeatherDisplay:10.37,2013-12-01 23:34:00,
2013-12-01 15:39:00,60.4,33.3,27.20,WSW,245,3.5,3.6,36,0.00,CLR,SCT,0.00,WeatherDisplay:10.37,2013-12-01 23:39:00,
2013-12-01 15:44:00,60.4,33.3,27.20,WSW,245,3.5,3.6,36,0.00,CLR,SCT,0.00,WeatherDisplay:10.37,2013-12-01 23:44:00,
2013-12-01 15:49:00,58.6,31.7,27.20,SW,229,10.4,10.4,36,0.00,CLR,SCT,0.00,WeatherDisplay:10.37,2013-12-01 23:49:00,
2013-12-01 15:54:00,58.6,31.7,27.20,WSW,254,15.0,15.0,36,0.00,CLR,SCT,0.00,WeatherDisplay:10.37,2013-12-01 23:54:00,
2013-12-01 15:59:00,58.6,31.7,27.20,South,186,15.0,15.0,36,0.00,CLR,SCT,0.00,WeatherDisplay:10.37,2013-12-01 23:59:00,
2013-12-01 16:04:00,57.9,31.1,27.20,South,186,15.0,15.0,36,0.00,CLR,SCT,0.00,WeatherDisplay:10.37,2013-12-02 00:04:00,
2013-12-01 16:09:00,57.9,31.1,27.20,South,186,15.0,15.0,36,0.00,CLR,SCT,0.00,WeatherDisplay:10.37,2013-12-02 00:09:00,
2013-12-01 16:14:00,57.9,31.1,27.20,SW,224,12.7,16.8,36,0.00,CLR,SCT,0.00,WeatherDisplay:10.37,2013-12-02 00:14:00,
2013-12-01 16:19:00,57.9,31.1,27.20,SW,224,13.8,16.3,36,0.00,CLR,SCT,0.00,WeatherDisplay:10.37,2013-12-02 00:19:00,
2013-12-01 16:24:00,57.9,31.1,27.20,SW,224,13.8,16.3,36,0.00,CLR,SCT,0.00,WeatherDisplay:10.37,2013-12-02 00:24:00,
2013-12-01 16:29:00,56.7,30.7,27.20,SW,224,13.8,16.3,37,0.00,CLR,SCT,0.00,WeatherDisplay:10.37,2013-12-02 00:29:00,
2013-12-01 16:34:00,56.5,30.5,27.20,SW,218,16.1,16.1,37,0.00,CLR,SCT,0.00,WeatherDisplay:10.37,2013-12-02 00:34:00,
2013-12-01 16:39:00,56.5,30.5,27.20,SW,223,16.1,16.1,37,0.00,CLR,SCT,0.00,WeatherDisplay:10.37,2013-12-02 00:39:00,
2013-12-01 16:44:00,56.5,30.5,27.20,SW,223,16.1,16.1,37,0.00,CLR,SCT,0.00,WeatherDisplay:10.37,2013-12-02 00:44:00,
2013-12-01 16:49:00,56.5,30.5,27.02,SW,223,16.1,16.1,37,0.00,CLR,SCT,0.00,WeatherDisplay:10.37,2013-12-02 00:49:00,
2013-12-01 16:54:00,56.5,30.5,27.20,WSW,254,16.1,16.1,37,0.00,CLR,SCT,0.00,WeatherDisplay:10.37,2013-12-02 00:54:00,
2013-12-01 16:59:00,56.5,30.5,27.20,WSW,237,16.1,16.1,37,0.00,CLR,SCT,0.00,WeatherDisplay:10.37,2013-12-02 00:59:00,
2013-12-01 17:04:00,56.5,30.5,27.20,SW,215,8.1,11.8,37,0.00,CLR,SCT,0.00,WeatherDisplay:10.37,2013-12-02 01:04:00,
2013-12-01 17:09:00,56.5,30.5,26.99,WSW,254,9.2,9.6,37,0.00,CLR,SCT,0.00,WeatherDisplay:10.37,2013-12-02 01:09:00,
2013-12-01 17:14:00,55.4,29.5,26.99,West,263,15.0,15.0,37,0.00,CLR,SCT,0.00,WeatherDisplay:10.37,2013-12-02 01:14:00,
2013-12-01 17:19:00,55.0,29.9,26.99,SSW,212,15.0,15.0,38,0.00,CLR,SCT,0.00,WeatherDisplay:10.37,2013-12-02 01:19:00,
2013-12-01 17:24:00,54.9,29.7,27.02,North,0,10.4,10.4,38,0.00,CLR,SCT,0.00,WeatherDisplay:10.37,2013-12-02 01:24:00,
2013-12-01 17:29:00,54.7,29.5,27.02,SW,222,16.1,16.1,38,0.00,CLR,SCT,0.00,WeatherDisplay:10.37,2013-12-02 01:29:00,
2013-12-01 17:34:00,54.7,29.5,27.02,SW,225,10.4,10.9,38,0.00,CLR,SCT,0.00,WeatherDisplay:10.37,2013-12-02 01:34:00,
2013-12-01 17:39:00,54.7,29.5,27.02,SW,225,10.4,10.9,38,0.00,CLR,SCT,0.00,WeatherDisplay:10.37,2013-12-02 01:39:00,
2013-12-01 17:44:00,54.7,29.5,27.02,WSW,238,10.4,10.9,38,0.00,CLR,SCT,0.00,WeatherDisplay:10.37,2013-12-02 01:44:00,
2013-12-01 17:49:00,54.7,29.5,26.99,SW,215,10.4,10.9,38,0.00,CLR,SCT,0.00,WeatherDisplay:10.37,2013-12-02 01:49:00,
2013-12-01 17:54:00,54.7,29.5,26.99,WSW,239,10.4,11.8,38,0.00,CLR,SCT,0.00,WeatherDisplay:10.37,2013-12-02 01:54:00,
2013-12-01 17:59:00,54.7,29.5,26.99,SW,222,10.4,11.4,38,0.00,CLR,SCT,0.00,WeatherDisplay:10.37,2013-12-02 01:59:00,
2013-12-01 18:04:00,54.7,29.5,26.99,SW,218,10.4,11.4,38,0.00,CLR,SCT,0.00,WeatherDisplay:10.37,2013-12-02 02:04:00,
2013-12-01 18:09:00,54.7,29.5,26.99,SSW,206,13.8,13.8,38,0.00,CLR,SCT,0.00,WeatherDisplay:10.37,2013-12-02 02:09:00,
2013-12-01 18:14:00,54.7,29.5,26.99,SSW,205,10.4,10.4,38,0.00,CLR,SCT,0.00,WeatherDisplay:10.37,2013-12-02 02:14:00,
2013-12-01 18:19:00,54.7,29.5,26.99,SSW,205,8.1,9.2,38,0.00,CLR,SCT,0.00,WeatherDisplay:10.37,2013-12-02 02:19:00,
2013-12-01 18:24:00,54.3,29.2,26.99,North,0,8.1,8.1,38,0.00,CLR,SCT,0.00,WeatherDisplay:10.37,2013-12-02 02:24:00,
2013-12-01 18:29:00,54.0,28.9,26.99,SSW,204,12.7,12.7,38,0.00,CLR,SCT,0.00,WeatherDisplay:10.37,2013-12-02 02:29:00,
2013-12-01 18:34:00,54.1,29.1,26.96,SSW,206,2.3,0.0,38,0.00,CLR,SCT,0.00,WeatherDisplay:10.37,2013-12-02 02:34:00,
2013-12-01 18:39:00,54.0,28.9,26.96,SSW,206,2.3,0.0,38,0.00,CLR,SCT,0.00,WeatherDisplay:10.37,2013-12-02 02:39:00,
2013-12-01 18:44:00,54.0,28.9,26.96,WSW,251,2.3,0.0,38,0.00,CLR,SCT,0.00,WeatherDisplay:10.37,2013-12-02 02:44:00,
2013-12-01 18:49:00,54.0,28.9,26.96,WSW,247,8.1,10.1,38,0.00,CLR,SCT,0.00,WeatherDisplay:10.37,2013-12-02 02:49:00,
2013-12-01 18:54:00,54.0,28.9,26.96,SW,228,3.5,5.8,38,0.00,CLR,SCT,0.00,WeatherDisplay:10.37,2013-12-02 02:54:00,
2013-12-01 18:59:00,54.0,28.9,26.96,WNW,299,3.5,5.8,38,0.00,CLR,SCT,0.00,WeatherDisplay:10.37,2013-12-02 02:59:00,
2013-12-01 19:04:00,53.8,28.7,26.96,SSW,196,5.8,6.3,38,0.00,CLR,SCT,0.00,WeatherDisplay:10.37,2013-12-02 03:04:00,
2013-12-01 19:09:00,53.8,28.7,26.96,West,265,5.8,6.3,38,0.00,CLR,SCT,0.00,WeatherDisplay:10.37,2013-12-02 03:09:00,
2013-12-01 19:14:00,53.8,28.7,26.96,West,265,5.8,6.3,38,0.00,CLR,SCT,0.00,WeatherDisplay:10.37,2013-12-02 03:14:00,
2013-12-01 19:19:00,54.0,28.9,26.96,SW,231,10.4,14.5,38,0.00,CLR,SCT,0.00,WeatherDisplay:10.37,2013-12-02 03:19:00,
2013-12-01 19:24:00,54.0,28.9,26.96,SW,231,10.4,14.5,38,0.00,CLR,SCT,0.00,WeatherDisplay:10.37,2013-12-02 03:24:00,
2013-12-01 19:29:00,54.0,28.9,26.96,SW,225,10.4,10.4,38,0.00,CLR,SCT,0.00,WeatherDisplay:10.37,2013-12-02 03:29:00,
2013-12-01 19:34:00,54.0,28.9,26.96,SW,216,5.8,6.3,38,0.00,CLR,SCT,0.00,WeatherDisplay:10.37,2013-12-02 03:34:00,
2013-12-01 19:39:00,54.0,28.9,26.96,SW,216,6.3,6.3,38,0.00,CLR,SCT,0.00,WeatherDisplay:10.37,2013-12-02 03:39:00,
2013-12-01 19:44:00,54.0,28.9,26.96,East,100,12.7,12.7,38,0.00,CLR,SCT,0.00,WeatherDisplay:10.37,2013-12-02 03:44:00,
2013-12-01 19:49:00,54.0,28.9,26.96,WSW,257,6.9,7.2,38,0.00,CLR,SCT,0.00,WeatherDisplay:10.37,2013-12-02 03:49:00,
2013-12-01 19:54:00,52.7,27.8,26.96,WSW,257,6.9,7.2,38,0.00,CLR,SCT,0.00,WeatherDisplay:10.37,2013-12-02 03:54:00,
2013-12-01 19:59:00,52.7,27.8,26.96,WSW,257,6.9,7.2,38,0.00,CLR,SCT,0.00,WeatherDisplay:10.37,2013-12-02 03:59:00,
2013-12-01 20:04:00,52.7,27.8,26.96,WSW,257,6.9,7.2,38,0.00,CLR,SCT,0.00,WeatherDisplay:10.37,2013-12-02 04:04:00,
2013-12-01 20:09:00,52.7,27.8,26.96,SW,214,6.9,12.3,38,0.00,CLR,SCT,0.00,WeatherDisplay:10.37,2013-12-02 04:09:00,
2013-12-01 20:14:00,52.7,27.8,26.93,SW,214,17.3,17.3,38,0.00,CLR,SCT,0.00,WeatherDisplay:10.37,2013-12-02 04:14:00,
2013-12-01 20:19:00,53.1,28.1,26.93,SW,220,17.3,17.3,38,0.00,CLR,SCT,0.00,WeatherDisplay:10.37,2013-12-02 04:19:00,
2013-12-01 20:24:00,53.1,28.1,26.93,West,273,8.1,10.9,38,0.00,CLR,SCT,0.00,WeatherDisplay:10.37,2013-12-02 04:24:00,
2013-12-01 20:30:00,52.7,27.8,26.93,West,273,3.5,10.9,38,0.00,CLR,SCT,0.00,WeatherDisplay:10.37,2013-12-02 04:30:00,
2013-12-01 20:35:00,52.7,28.4,26.93,West,273,3.5,10.9,39,0.00,CLR,SCT,0.00,WeatherDisplay:10.37,2013-12-02 04:35:00,
2013-12-01 20:40:00,52.7,28.4,26.93,West,273,3.5,10.9,39,0.00,CLR,SCT,0.00,WeatherDisplay:10.37,2013-12-02 04:40:00,
2013-12-01 20:45:00,52.5,27.6,26.93,West,273,3.5,10.9,38,0.00,CLR,SCT,0.00,WeatherDisplay:10.37,2013-12-02 04:45:00,
2013-12-01 20:50:00,52.5,27.6,26.93,West,273,3.5,10.9,38,0.00,CLR,SCT,0.00,WeatherDisplay:10.37,2013-12-02 04:50:00,
2013-12-01 20:55:00,52.9,27.9,26.93,SW,226,10.4,10.4,38,0.00,CLR,SCT,0.00,WeatherDisplay:10.37,2013-12-02 04:55:00,
2013-12-01 21:00:00,52.9,27.9,26.93,SSW,209,10.4,10.4,38,0.00,CLR,SCT,0.00,WeatherDisplay:10.37,2013-12-02 05:00:00,
2013-12-01 21:01:00,52.9,27.9,26.93,North,7,10.4,10.4,38,0.00,CLR,SCT,0.00,WeatherDisplay:10.37,2013-12-02 05:01:00,
2013-12-01 21:02:00,52.9,27.9,26.93,North,7,10.4,10.4,38,0.00,CLR,SCT,0.00,WeatherDisplay:10.37,2013-12-02 05:02:00,
2013-12-01 21:07:00,52.9,27.9,26.93,SSW,212,10.4,10.4,38,0.00,CLR,SCT,0.00,WeatherDisplay:10.37,2013-12-02 05:07:00,
2013-12-01 21:12:00,52.5,27.6,26.93,SW,221,10.4,10.4,38,0.00,CLR,SCT,0.00,WeatherDisplay:10.37,2013-12-02 05:12:00,
2013-12-01 21:17:00,52.5,27.6,26.93,SW,221,10.4,10.4,38,0.00,CLR,SCT,0.00,WeatherDisplay:10.37,2013-12-02 05:17:00,
2013-12-01 21:22:00,52.2,27.3,26.93,South,184,10.4,10.4,38,0.00,CLR,SCT,0.00,WeatherDisplay:10.37,2013-12-02 05:22:00,
2013-12-01 21:27:00,52.2,27.3,26.93,North,0,3.5,4.9,38,0.00,CLR,SCT,0.00,WeatherDisplay:10.37,2013-12-02 05:27:00,
2013-12-01 21:32:00,52.3,27.5,26.93,North,0,3.5,4.9,38,0.00,CLR,SCT,0.00,WeatherDisplay:10.37,2013-12-02 05:32:00,
2013-12-01 21:37:00,52.2,27.3,26.93,North,0,3.5,4.9,38,0.00,CLR,SCT,0.00,WeatherDisplay:10.37,2013-12-02 05:37:00,
2013-12-01 21:42:00,52.2,27.3,26.90,South,170,5.8,5.8,38,0.31,RA,SCT,0.31,WeatherDisplay:10.37,2013-12-02 05:42:00,
2013-12-01 21:47:00,52.0,27.1,26.90,SSW,213,5.8,5.8,38,0.31,RA,SCT,0.31,WeatherDisplay:10.37,2013-12-02 05:47:00,
2013-12-01 21:52:00,52.0,27.1,26.90,SSW,213,5.8,5.8,38,0.31,,SCT,0.31,WeatherDisplay:10.37,2013-12-02 05:52:00,
2013-12-01 21:57:00,52.0,27.1,26.90,South,189,3.5,5.8,38,0.31,CLR,SCT,0.31,WeatherDisplay:10.37,2013-12-02 05:57:00,
2013-12-01 22:02:00,52.0,27.1,26.90,SSW,195,9.2,9.2,38,0.31,CLR,SCT,0.31,WeatherDisplay:10.37,2013-12-02 06:02:00,
2013-12-01 22:07:00,52.0,27.1,26.90,SSW,195,9.2,9.2,38,0.31,CLR,SCT,0.31,WeatherDisplay:10.37,2013-12-02 06:07:00,
2013-12-01 22:12:00,52.0,27.1,26.90,WSW,258,9.2,10.1,38,0.31,CLR,SCT,0.31,WeatherDisplay:10.37,2013-12-02 06:12:00,
2013-12-01 22:17:00,52.0,27.1,26.90,SSW,203,5.8,5.8,38,0.31,CLR,SCT,0.31,WeatherDisplay:10.37,2013-12-02 06:17:00,
2013-12-01 22:22:00,52.9,27.9,26.90,SSW,203,5.8,5.8,38,0.31,CLR,SCT,0.31,WeatherDisplay:10.37,2013-12-02 06:22:00,
2013-12-01 22:27:00,53.2,28.3,26.90,SW,230,5.8,17.4,38,0.31,CLR,SCT,0.31,WeatherDisplay:10.37,2013-12-02 06:27:00,
2013-12-01 22:32:00,53.4,28.4,26.90,SW,220,13.8,17.4,38,0.31,CLR,SCT,0.31,WeatherDisplay:10.37,2013-12-02 06:32:00,
2013-12-01 22:37:00,53.4,28.4,26.90,SW,220,13.8,17.4,38,0.31,CLR,SCT,0.31,WeatherDisplay:10.37,2013-12-02 06:37:00,
2013-12-01 22:42:00,54.0,28.3,26.90,SW,220,13.8,17.4,37,0.00,CLR,SCT,0.31,WeatherDisplay:10.37,2013-12-02 06:42:00,
2013-12-01 22:47:00,54.1,28.4,26.90,SW,220,13.8,17.4,37,0.00,CLR,SCT,0.31,WeatherDisplay:10.37,2013-12-02 06:47:00,
2013-12-01 22:52:00,54.1,28.4,26.90,SW,216,13.8,17.4,37,0.00,CLR,SCT,0.31,WeatherDisplay:10.37,2013-12-02 06:52:00,
2013-12-01 22:57:00,54.1,28.4,26.90,SW,226,24.2,24.2,37,0.00,CLR,SCT,0.31,WeatherDisplay:10.37,2013-12-02 06:57:00,
2013-12-01 23:02:00,54.1,28.4,26.90,SSW,199,3.5,5.8,37,0.00,CLR,SCT,0.31,WeatherDisplay:10.37,2013-12-02 07:02:00,
2013-12-01 23:07:00,54.1,28.4,26.90,SW,222,10.4,10.4,37,0.00,CLR,SCT,0.31,WeatherDisplay:10.37,2013-12-02 07:07:00,
2013-12-01 23:12:00,54.1,28.4,26.90,WSW,239,10.4,16.8,37,0.00,CLR,SCT,0.31,WeatherDisplay:10.37,2013-12-02 07:12:00,
2013-12-01 23:17:00,53.8,28.1,26.90,SW,219,16.1,16.1,37,0.00,CLR,SCT,0.31,WeatherDisplay:10.37,2013-12-02 07:17:00,
2013-12-01 23:22:00,53.8,28.1,26.90,WSW,249,12.7,12.7,37,0.00,CLR,SCT,0.31,WeatherDisplay:10.37,2013-12-02 07:22:00,
2013-12-01 23:27:00,53.8,28.1,26.90,WSW,249,12.7,12.7,37,0.00,CLR,SCT,0.31,WeatherDisplay:10.37,2013-12-02 07:27:00,
2013-12-01 23:32:00,53.8,28.1,26.84,WSW,249,12.7,12.7,37,0.00,CLR,SCT,0.31,WeatherDisplay:10.37,2013-12-02 07:32:00,
2013-12-01 23:37:00,53.8,28.1,26.84,WSW,250,5.8,5.8,37,0.00,CLR,SCT,0.31,WeatherDisplay:10.37,2013-12-02 07:37:00,
2013-12-01 23:42:00,53.8,28.1,26.84,WSW,250,5.8,5.8,37,0.00,CLR,SCT,0.31,WeatherDisplay:10.37,2013-12-02 07:42:00,
2013-12-01 23:47:00,53.8,28.1,26.84,NE,34,5.8,0.0,37,0.00,CLR,SCT,0.31,WeatherDisplay:10.37,2013-12-02 07:47:00,
2013-12-01 23:52:00,53.8,28.1,26.84,North,0,0.0,0.0,37,0.00,CLR,SCT,0.31,WeatherDisplay:10.37,2013-12-02 07:52:00,
2013-12-01 23:57:00,53.8,28.1,26.84,WSW,250,0.0,0.0,37,0.00,RA,SCT,0.00,WeatherDisplay:10.37,2013-12-02 07:57:00,